STARLINK-30218 (57604 NORAD) Tracking and Keplerian Element Data

This shows tracking and keplerian element data for the satellite.

Feedback or suggestion? Click here.




ElementValue
Catalog57604
NameSTARLINK-30218
Epoch Orbit2476
Epoch Day13.19012502
Epoch Year2024
RAAN35.4224
Inclination43.0034
Eccentricity8.38E-05
Argument of Perigee236.095
Mean Anonmoly123.9813
Mean Motion15.02526723
Decay Rate0.00019357
L11 57604U 23119C 24013.19012502 .00019357 00000+0 14444-2 0 9991
L22 57604 43.0034 35.4224 0000838 236.0950 123.9813 15.02526723 24761



Live tracking and technical data element details for STARLINK-30218 (NORAD 57604). STARLINK-30218 can be tracked NOW for your location showing map with azimuth and elevation plus other details from your city location.







IsCatalogInMostPopularTable: catalog: 57604, numindb: 26
Update: records affected: 1



GetName: 57604 STARLINK-30218

Hit Count: updated at: Thu, 22 Feb 2024 00:31:09 GMT